Location: Calvatone
(45.1167°N, 10.4333°E)
Time: 09:51:01
(UTC+00:00)

NOSS 2-1 (C) - Pass Details

Date: 28 January 2023
Orbit: 403 x 1774 km, 63.3° (Epoch: 27 March)

Event Time Altitude Azimuth Distance (km) Brightness Sun altitude
Rises 17:00:59 0° 328° (NNW) 2,652 7.0 -7.6°
Reaches altitude 10° 17:03:00 10° 337° (NNW) 1,888 6.1 -7.9°
Maximum altitude 17:06:58 38° 47° (NE) 1,059 4.3 -8.6°
Drops below altitude 10° 17:12:21 10° 115° (ESE) 2,581 6.3 -9.5°
Sets 17:15:33 0° 123° (ESE) 3,778 7.2 -10.1°
